Regional Weather Roundup
Issued by NWS Charleston, WV

Home | Current Version | Previous Version | Graphics & Text | Print | Product List | Glossary On
Versions: 1 2 3 4 5 6 7 8 9 10 11 12 13 14 15 16 17 18 19 20 21 22 23 24 25 26 27 28 29 30 31 32 33 34 35 36 37 38 39 40 41 42 43 44 45 46 47 48 49 50
000
ASUS41 KRLX 260410
RWRRLX
West Virginia Regional Weather Roundup
National Weather Service Charleston WV
1200 AM EDT THU MAR 26 2015

Note: "fair" indicates few or no clouds below 12,000 feet with no
significant weather and/or obstructions to visibility.

WVZ003-260500-
Northern Panhandle of West Virginia

CITY           SKY/WX    TMP DP  RH WIND       PRES   REMARKS
WHEELING         N/A     54  45  71 S5        29.99F
$$

WVZ009-260500-
Northwest West Virginia

CITY           SKY/WX    TMP DP  RH WIND       PRES   REMARKS
PARKERSBURG      N/A     53  48  83 CALM      30.02F
$$

WVZ006-260500-
Western West Virginia

CITY           SKY/WX    TMP DP  RH WIND       PRES   REMARKS
HUNTINGTON       N/A     60  48  64 NE7       29.99S
$$

WVZ015-260500-
West Central West Virginia

CITY           SKY/WX    TMP DP  RH WIND       PRES   REMARKS
CHARLESTON       N/A     59  46  62 CALM      30.00S
$$

WVZ022-031-260500-
North Central West Virginia

CITY           SKY/WX    TMP DP  RH WIND       PRES   REMARKS
CLARKSBURG       N/A     57  44  62 NE3       30.02S
MORGANTOWN       N/A     55  43  63 E3        30.03S
$$

WVZ025-035-042-045-260500-
Southern West Virginia

CITY           SKY/WX    TMP DP  RH WIND       PRES   REMARKS
BECKLEY          N/A     58  47  66 S9        30.06F
LOGAN          CLOUDY    63  46  55 CALM      29.99S
BLUEFIELD        N/A     58  47  66 S9        30.09F
LEWISBURG      MOCLDY    51  46  82 CALM      30.10S
$$

WVZ047-260500-
Northern Mountains of West Virginia

CITY           SKY/WX    TMP DP  RH WIND       PRES   REMARKS
ELKINS           N/A     52  44  74 E3        30.05F
$$

WVZ052-260500-
Eastern Panhandle of West Virginia

CITY           SKY/WX    TMP DP  RH WIND       PRES   REMARKS
MARTINSBURG      N/A     41  34  76 CALM      30.09F
PETERSBURG       N/A     56  41  57 S12G17    30.07F
$$



USA.gov is the U.S. government's official web portal to all federal, state and local government web resources and services.